| time (UTC) | temp C | wind direction | speed KPH | gust KPH | rain 1hr cm | rain 24hr cm | rain mn cm | humidity % | barometer mb |
| 20260502211506 | 15 | 79 | 4.8 | 22.5 | 0.05 | 0.18 | 0.18 | 83 | 1012.7 |
| 20260502210010 | 15 | 10 | 4.8 | 35.4 | 0.08 | 0.18 | 0.18 | 83 | 1012.9 |
| 20260502205003 | 15 | 95 | 12.9 | 25.7 | 0.08 | 0.18 | 0.18 | 84 | 1013.0 |
| 20260502204516 | 15 | 16 | 3.2 | 32.2 | 0.08 | 0.18 | 0.18 | 83 | 1013.4 |
| 20260502204006 | 15 | 2 | 12.9 | 33.8 | 0.08 | 0.18 | 0.18 | 83 | 1013.5 |
| 20260502202504 | 15 | 10 | 12.9 | 24.1 | 0.08 | 0.15 | 0.15 | 83 | 1014.1 |
| 20260502201512 | 15 | 8 | 11.3 | 29.0 | 0.08 | 0.13 | 0.13 | 83 | 1014.0 |
| 20260502201005 | 15 | 21 | 16.1 | 43.5 | 0.08 | 0.13 | 0.13 | 82 | 1014.0 |
| 20260502200009 | 15 | 30 | 16.1 | 37.0 | 0.05 | 0.10 | 0.10 | 82 | 1013.8 |
| 20260502194507 | 15 | 12 | 14.5 | 30.6 | 0.05 | 0.08 | 0.08 | 81 | 1013.8 |
| 20260502193020 | 15 | 104 | 9.7 | 33.8 | 0.03 | 0.05 | 0.05 | 80 | 1013.9 |
| 20260502192009 | 15 | 17 | 9.7 | 32.2 | 0.05 | 0.05 | 0.05 | 80 | 1013.5 |
| 20260502191525 | 15 | 18 | 11.3 | 30.6 | 0.05 | 0.05 | 0.05 | 81 | 1013.6 |
| 20260502191008 | 15 | 38 | 11.3 | 27.4 | 0.05 | 0.05 | 0.05 | 81 | 1013.6 |
| 20260502190033 | 15 | 355 | 12.9 | 27.4 | 0.05 | 0.05 | 0.05 | 81 | 1013.7 |
| 20260502185506 | 15 | 2 | 14.5 | 40.2 | 0.05 | 0.05 | 0.05 | 80 | 1013.5 |
| 20260502183509 | 15 | 329 | 19.3 | 38.6 | 0.00 | 0.00 | 0.00 | 78 | 1013.3 |
| 20260502183022 | 15 | 22 | 16.1 | 35.4 | 0.00 | 0.00 | 0.00 | 78 | 1013.3 |
| 20260502182502 | 15 | 49 | 19.3 | 35.4 | 0.00 | 0.00 | 0.00 | 78 | 1013.3 |
| 20260502181517 | 15 | 18 | 16.1 | 30.6 | 0.00 | 0.00 | 0.00 | 76 | 1013.5 |
| 20260502170509 | 18 | 12 | 9.7 | 17.7 | 0.00 | 0.00 | 0.00 | 65 | 1014.4 |
| 20260502164007 | 18 | 4 | 4.8 | 16.1 | 0.00 | 0.00 | 0.00 | 63 | 1014.1 |
| 20260502163508 | 18 | 8 | 3.2 | 17.7 | 0.00 | 0.00 | 0.00 | 63 | 1014.1 |
| 20260502163023 | 18 | 69 | 4.8 | 17.7 | 0.00 | 0.00 | 0.00 | 63 | 1014.2 |
| 20260502162508 | 18 | 45 | 6.4 | 19.3 | 0.00 | 0.00 | 0.00 | 63 | 1014.0 |
| 20260502162011 | 18 | 71 | 6.4 | 19.3 | 0.00 | 0.00 | 0.00 | 63 | 1014.1 |
| 20260502160513 | 18 | 27 | 1.6 | 16.1 | 0.00 | 0.00 | 0.00 | 63 | 1014.3 |
| 20260502152009 | 17 | 358 | 6.4 | 16.1 | 0.00 | 0.00 | 0.00 | 65 | 1014.7 |
| 20260502151548 | 17 | 328 | 8.0 | 16.1 | 0.00 | 0.00 | 0.00 | 65 | 1014.7 |
| 20260502151010 | 17 | 345 | 4.8 | 14.5 | 0.00 | 0.00 | 0.00 | 65 | 1014.6 |
| 20260502150512 | 17 | 33 | 6.4 | 17.7 | 0.00 | 0.00 | 0.00 | 65 | 1014.6 |
| 20260502130511 | 17 | 73 | 4.8 | 20.9 | 0.00 | 0.00 | 0.00 | 64 | 1016.2 |
| 20260502123024 | 17 | 22 | 9.7 | 17.7 | 0.00 | 0.00 | 0.00 | 60 | 1016.7 |
| 20260502122003 | 17 | 13 | 9.7 | 25.7 | 0.00 | 0.00 | 0.00 | 60 | 1016.7 |
| 20260502121506 | 17 | 340 | 14.5 | 25.7 | 0.00 | 0.00 | 0.00 | 60 | 1016.7 |
| 20260502121004 | 17 | 356 | 11.3 | 20.9 | 0.00 | 0.00 | 0.00 | 61 | 1016.6 |
| 20260502120503 | 17 | 13 | 12.9 | 24.1 | 0.00 | 0.00 | 0.00 | 61 | 1016.7 |
| 20260502115503 | 17 | 7 | 11.3 | 30.6 | 0.00 | 0.00 | 0.00 | 63 | 1016.7 |
| 20260502115003 | 17 | 358 | 14.5 | 30.6 | 0.00 | 0.00 | 0.00 | 64 | 1016.7 |
| 20260502114003 | 18 | 336 | 16.1 | 27.4 | 0.00 | 0.00 | 0.00 | 63 | 1016.6 |
| 20260502113508 | 18 | 355 | 14.5 | 37.0 | 0.00 | 0.00 | 0.00 | 60 | 1016.6 |
| 20260502113010 | 19 | 339 | 20.9 | 37.0 | 0.00 | 0.00 | 0.00 | 57 | 1016.5 |
| 20260502112008 | 19 | 7 | 8.0 | 22.5 | 0.00 | 0.00 | 0.00 | 55 | 1016.3 |
| 20260502111503 | 19 | 50 | 8.0 | 32.2 | 0.00 | 0.00 | 0.00 | 55 | 1016.2 |
| 20260502111003 | 19 | 29 | 11.3 | 30.6 | 0.00 | 0.00 | 0.00 | 56 | 1016.1 |
| 20260502110503 | 19 | 37 | 8.0 | 30.6 | 0.00 | 0.00 | 0.00 | 55 | 1016.1 |
| 20260502110008 | 19 | 54 | 12.9 | 32.2 | 0.00 | 0.00 | 0.00 | 55 | 1016.1 |
| 20260502105504 | 20 | 77 | 11.3 | 32.2 | 0.00 | 0.00 | 0.00 | 54 | 1016.0 |
| 20260502105004 | 19 | 328 | 9.7 | 30.6 | 0.00 | 0.00 | 0.00 | 54 | 1016.0 |
| 20260502104506 | 19 | 16 | 9.7 | 24.1 | 0.00 | 0.00 | 0.00 | 54 | 1016.0 |
| 20260502104006 | 19 | 145 | 8.0 | 32.2 | 0.00 | 0.00 | 0.00 | 53 | 1016.0 |
| 20260502103506 | 19 | 65 | 8.0 | 32.2 | 0.00 | 0.00 | 0.00 | 53 | 1015.9 |
| 20260502102509 | 19 | 333 | 11.3 | 33.8 | 0.00 | 0.00 | 0.00 | 53 | 1016.0 |
| 20260502102004 | 19 | 70 | 8.0 | 27.4 | 0.00 | 0.00 | 0.00 | 52 | 1016.0 |
| 20260502101007 | 19 | 33 | 8.0 | 22.5 | 0.00 | 0.00 | 0.00 | 51 | 1016.0 |
| 20260502100503 | 19 | 25 | 6.4 | 22.5 | 0.00 | 0.00 | 0.00 | 51 | 1016.2 |
| 20260502091008 | 20 | 68 | 9.7 | 25.7 | 0.00 | 0.00 | 0.00 | 45 | 1016.3 |
| 20260502090511 | 20 | 330 | 4.8 | 24.1 | 0.00 | 0.00 | 0.00 | 45 | 1016.4 |
| 20260502071511 | 20 | 59 | 4.8 | 17.7 | 0.00 | 0.00 | 0.00 | 48 | 1016.5 |
| 20260502071009 | 20 | 27 | 6.4 | 14.5 | 0.00 | 0.00 | 0.00 | 48 | 1016.4 |
| 20260502070510 | 20 | 24 | 3.2 | 17.7 | 0.00 | 0.00 | 0.00 | 49 | 1016.4 |
| 20260502070036 | 20 | 27 | 6.4 | 22.5 | 0.00 | 0.00 | 0.00 | 48 | 1016.5 |
| 20260502065510 | 20 | 37 | 3.2 | 22.5 | 0.00 | 0.00 | 0.00 | 49 | 1016.4 |
| 20260502065010 | 20 | 64 | 6.4 | 22.5 | 0.00 | 0.00 | 0.00 | 50 | 1016.5 |
| 20260502064520 | 21 | 46 | 3.2 | 14.5 | 0.00 | 0.00 | 0.00 | 50 | 1016.4 |
| 20260502064008 | 21 | 14 | 4.8 | 19.3 | 0.00 | 0.00 | 0.00 | 50 | 1016.3 |
| 20260502063507 | 21 | 56 | 8.0 | 19.3 | 0.00 | 0.00 | 0.00 | 50 | 1016.3 |
| 20260502063035 | 21 | 27 | 1.6 | 14.5 | 0.00 | 0.00 | 0.00 | 50 | 1016.2 |
| 20260502062509 | 21 | 76 | 3.2 | 29.0 | 0.00 | 0.00 | 0.00 | 50 | 1016.3 |
| 20260502062015 | 21 | 9 | 3.2 | 30.6 | 0.00 | 0.00 | 0.00 | 50 | 1016.2 |
| 20260502061010 | 21 | 72 | 6.4 | 25.7 | 0.00 | 0.00 | 0.00 | 49 | 1016.1 |
| 20260502060507 | 21 | 68 | 6.4 | 25.7 | 0.00 | 0.00 | 0.00 | 49 | 1016.1 |
| 20260502060018 | 21 | 106 | 8.0 | 19.3 | 0.00 | 0.00 | 0.00 | 49 | 1016.1 |
| 20260502055509 | 21 | 139 | 1.6 | 16.1 | 0.00 | 0.00 | 0.00 | 51 | 1016.2 |
| 20260502055008 | 21 | 18 | 6.4 | 14.5 | 0.00 | 0.00 | 0.00 | 51 | 1016.3 |
| 20260502054529 | 21 | 29 | 3.2 | 24.1 | 0.00 | 0.00 | 0.00 | 51 | 1016.4 |
| 20260502054010 | 21 | 36 | 11.3 | 24.1 | 0.00 | 0.00 | 0.00 | 50 | 1016.5 |
| 20260502053508 | 21 | 76 | 6.4 | 22.5 | 0.00 | 0.00 | 0.00 | 51 | 1016.6 |
| 20260502053016 | 21 | 85 | 9.7 | 22.5 | 0.00 | 0.00 | 0.00 | 51 | 1016.6 |
| 20260502052508 | 21 | 347 | 6.4 | 20.9 | 0.00 | 0.00 | 0.00 | 52 | 1016.7 |
| 20260502052011 | 21 | 340 | 9.7 | 20.9 | 0.00 | 0.00 | 0.00 | 49 | 1016.7 |
| 20260502051526 | 21 | 12 | 4.8 | 27.4 | 0.00 | 0.00 | 0.00 | 50 | 1016.8 |
| 20260502051013 | 22 | 8 | 8.0 | 27.4 | 0.00 | 0.00 | 0.00 | 49 | 1016.7 |
| 20260502050513 | 22 | 19 | 11.3 | 30.6 | 0.00 | 0.00 | 0.00 | 47 | 1016.8 |
| 20260502050036 | 22 | 45 | 8.0 | 43.5 | 0.00 | 0.00 | 0.00 | 46 | 1016.7 |
| 20260502045509 | 22 | 1 | 16.1 | 43.5 | 0.00 | 0.00 | 0.00 | 45 | 1016.7 |
| 20260502045008 | 22 | 9 | 8.0 | 32.2 | 0.00 | 0.00 | 0.00 | 47 | 1016.9 |
| 20260502044517 | 22 | 50 | 8.0 | 37.0 | 0.00 | 0.00 | 0.00 | 46 | 1017.0 |
| 20260502044008 | 22 | 21 | 16.1 | 35.4 | 0.00 | 0.00 | 0.00 | 46 | 1017.0 |
| 20260502043507 | 22 | 31 | 9.7 | 38.6 | 0.00 | 0.00 | 0.00 | 49 | 1017.1 |
| 20260502043027 | 22 | 2 | 19.3 | 38.6 | 0.00 | 0.00 | 0.00 | 48 | 1017.0 |
| 20260502042510 | 22 | 14 | 14.5 | 38.6 | 0.00 | 0.00 | 0.00 | 46 | 1017.1 |
| 20260502042012 | 22 | 25 | 22.5 | 38.6 | 0.00 | 0.00 | 0.00 | 47 | 1017.2 |
| 20260502041527 | 22 | 356 | 14.5 | 33.8 | 0.00 | 0.00 | 0.00 | 48 | 1017.3 |
| 20260502041008 | 22 | 18 | 19.3 | 33.8 | 0.00 | 0.00 | 0.00 | 49 | 1017.3 |
| 20260502040512 | 22 | 9 | 19.3 | 33.8 | 0.00 | 0.00 | 0.00 | 49 | 1017.4 |
| 20260502040023 | 21 | 353 | 14.5 | 37.0 | 0.00 | 0.00 | 0.00 | 51 | 1017.4 |
| 20260502035509 | 21 | 8 | 19.3 | 37.0 | 0.00 | 0.00 | 0.00 | 49 | 1017.4 |
| 20260502035014 | 21 | 15 | 19.3 | 41.8 | 0.00 | 0.00 | 0.00 | 51 | 1017.4 |
| 20260502034522 | 21 | 348 | 19.3 | 41.8 | 0.00 | 0.00 | 0.00 | 50 | 1017.4 |
| 20260502033512 | 21 | 320 | 14.5 | 38.6 | 0.00 | 0.00 | 0.00 | 50 | 1017.5 |
| 20260502033018 | 21 | 50 | 14.5 | 38.6 | 0.00 | 0.00 | 0.00 | 50 | 1017.5 |
| 20260502032507 | 21 | 4 | 19.3 | 37.0 | 0.00 | 0.00 | 0.00 | 49 | 1017.6 |
| 20260502032011 | 21 | 347 | 19.3 | 48.3 | 0.00 | 0.00 | 0.00 | 50 | 1017.6 |
| 20260502031516 | 21 | 360 | 12.9 | 48.3 | 0.00 | 0.00 | 0.00 | 51 | 1017.7 |
| 20260502031011 | 21 | 14 | 17.7 | 38.6 | 0.00 | 0.00 | 0.00 | 51 | 1017.8 |
| 20260502030511 | 21 | 334 | 16.1 | 38.6 | 0.00 | 0.00 | 0.00 | 51 | 1017.8 |
| 20260502030013 | 21 | 360 | 17.7 | 35.4 | 0.00 | 0.00 | 0.00 | 50 | 1017.8 |
| 20260502025509 | 21 | 341 | 9.7 | 41.8 | 0.00 | 0.00 | 0.00 | 49 | 1017.9 |
| 20260502025009 | 22 | 307 | 19.3 | 41.8 | 0.00 | 0.00 | 0.00 | 48 | 1018.0 |
| 20260502024517 | 22 | 29 | 16.1 | 38.6 | 0.00 | 0.00 | 0.00 | 48 | 1017.9 |
| 20260502024007 | 22 | 23 | 20.9 | 35.4 | 0.00 | 0.00 | 0.00 | 48 | 1018.0 |
| 20260502023508 | 22 | 26 | 14.5 | 30.6 | 0.00 | 0.00 | 0.00 | 47 | 1018.0 |
| 20260502023014 | 22 | 313 | 16.1 | 33.8 | 0.00 | 0.00 | 0.00 | 47 | 1018.2 |
| 20260502022507 | 22 | 348 | 19.3 | 33.8 | 0.00 | 0.00 | 0.00 | 50 | 1018.4 |
| 20260502022011 | 22 | 17 | 16.1 | 33.8 | 0.00 | 0.00 | 0.00 | 51 | 1018.5 |
| 20260502021522 | 21 | 9 | 22.5 | 33.8 | 0.00 | 0.00 | 0.00 | 50 | 1018.6 |
| 20260502020509 | 21 | 349 | 12.9 | 32.2 | 0.00 | 0.00 | 0.00 | 51 | 1018.9 |
| 20260502020016 | 21 | 22 | 17.7 | 29.0 | 0.00 | 0.00 | 0.00 | 50 | 1018.9 |
| 20260502015507 | 21 | 56 | 12.9 | 25.7 | 0.00 | 0.00 | 0.00 | 51 | 1019.1 |
| 20260502015005 | 21 | 341 | 14.5 | 25.7 | 0.00 | 0.00 | 0.00 | 55 | 1019.3 |
| 20260502014516 | 21 | 337 | 11.3 | 20.9 | 0.00 | 0.00 | 0.00 | 55 | 1019.5 |
| 20260502014005 | 20 | 343 | 8.0 | 20.9 | 0.00 | 0.00 | 0.00 | 57 | 1019.6 |
| 20260502013507 | 20 | 348 | 4.8 | 17.7 | 0.00 | 0.00 | 0.00 | 56 | 1019.6 |
| 20260502013016 | 20 | 352 | 6.4 | 20.9 | 0.00 | 0.00 | 0.00 | 58 | 1019.8 |
| 20260502012507 | 19 | 5 | 9.7 | 20.9 | 0.00 | 0.00 | 0.00 | 58 | 1019.8 |
| 20260502012007 | 19 | 26 | 6.4 | 17.7 | 0.00 | 0.00 | 0.00 | 59 | 1019.9 |
| 20260502005508 | 18 | 11 | 4.8 | 16.1 | 0.00 | 0.00 | 0.00 | 58 | 1020.3 |
| 20260502005008 | 18 | 48 | 4.8 | 16.1 | 0.00 | 0.00 | 0.00 | 59 | 1020.4 |
| 20260502004520 | 18 | 27 | 4.8 | 16.1 | 0.00 | 0.00 | 0.00 | 59 | 1020.5 |
| 20260502003502 | 18 | 348 | 4.8 | 24.1 | 0.00 | 0.00 | 0.00 | 58 | 1020.6 |
| 20260502003009 | 18 | 52 | 6.4 | 24.1 | 0.00 | 0.00 | 0.00 | 57 | 1020.6 |
| 20260502002503 | 18 | 8 | 11.3 | 22.5 | 0.00 | 0.00 | 0.00 | 56 | 1020.6 |
| 20260502002003 | 18 | 76 | 8.0 | 22.5 | 0.00 | 0.00 | 0.00 | 58 | 1020.5 |
| 20260502001504 | 18 | 22 | 3.2 | 8.0 | 0.00 | 0.00 | 0.00 | 58 | 1020.6 |
| 20260502001004 | 18 | 32 | 1.6 | 12.9 | 0.00 | 0.00 | 0.00 | 58 | 1020.6 |
| 20260502000503 | 18 | 59 | 1.6 | 12.9 | 0.00 | 0.00 | 0.00 | 58 | 1020.6 |
| 20260502000006 | 18 | 93 | 3.2 | 9.7 | 0.00 | 0.00 | 0.00 | 58 | 1020.7 |
| 20260501235504 | 18 | 33 | 3.2 | 16.1 | 0.00 | 0.00 | 0.00 | 58 | 1020.6 |
| 20260501235004 | 18 | 333 | 4.8 | 16.1 | 0.00 | 0.00 | 0.00 | 58 | 1020.6 |
| 20260501234505 | 18 | 33 | 0.0 | 12.9 | 0.00 | 0.00 | 0.00 | 59 | 1020.6 |
| 20260501234003 | 18 | 30 | 1.6 | 11.3 | 0.00 | 0.00 | 0.00 | 58 | 1020.7 |
| 20260501233503 | 18 | 345 | 3.2 | 9.7 | 0.00 | 0.00 | 0.00 | 57 | 1020.7 |
| 20260501233005 | 17 | 20 | 0.0 | 14.5 | 0.00 | 0.00 | 0.00 | 58 | 1020.6 |
| 20260501232508 | 17 | 47 | 3.2 | 16.1 | 0.00 | 0.00 | 0.00 | 59 | 1020.8 |
| 20260501232002 | 17 | 148 | 4.8 | 16.1 | 0.00 | 0.00 | 0.00 | 58 | 1020.8 |
| 20260501231503 | 17 | 77 | 3.2 | 14.5 | 0.00 | 0.00 | 0.00 | 58 | 1020.8 |
| 20260501230502 | 17 | 18 | 4.8 | 17.7 | 0.00 | 0.00 | 0.00 | 58 | 1020.8 |
| 20260501230005 | 17 | 77 | 1.6 | 17.7 | 0.00 | 0.00 | 0.00 | 59 | 1020.8 |
| 20260501225504 | 17 | 40 | 8.0 | 17.7 | 0.00 | 0.00 | 0.00 | 58 | 1020.9 |
| 20260501225006 | 17 | 31 | 3.2 | 22.5 | 0.00 | 0.00 | 0.00 | 58 | 1021.0 |
| 20260501224504 | 17 | 39 | 8.0 | 20.9 | 0.00 | 0.00 | 0.00 | 59 | 1020.9 |
| 20260501224004 | 17 | 4 | 4.8 | 17.7 | 0.00 | 0.00 | 0.00 | 58 | 1020.8 |
| 20260501223504 | 17 | 21 | 4.8 | 17.7 | 0.00 | 0.00 | 0.00 | 59 | 1020.9 |
| 20260501223008 | 17 | 24 | 1.6 | 17.7 | 0.00 | 0.00 | 0.00 | 60 | 1020.8 |
| 20260501222503 | 17 | 52 | 8.0 | 19.3 | 0.00 | 0.00 | 0.00 | 59 | 1020.8 |
| 20260501222008 | 17 | 27 | 4.8 | 19.3 | 0.00 | 0.00 | 0.00 | 60 | 1020.8 |
| 20260501221513 | 17 | 22 | 6.4 | 17.7 | 0.00 | 0.00 | 0.00 | 59 | 1020.8 |
| 20260501221005 | 17 | 46 | 3.2 | 14.5 | 0.00 | 0.00 | 0.00 | 60 | 1020.7 |
| 20260501220508 | 17 | 27 | 3.2 | 9.7 | 0.00 | 0.00 | 0.00 | 60 | 1020.6 |
| 20260501220021 | 17 | 344 | 1.6 | 14.5 | 0.00 | 0.00 | 0.00 | 60 | 1020.6 |
| 20260501215512 | 17 | 10 | 6.4 | 16.1 | 0.00 | 0.00 | 0.00 | 59 | 1020.6 |
| 20260501215004 | 17 | 25 | 4.8 | 16.1 | 0.00 | 0.00 | 0.00 | 58 | 1020.6 |
| 20260501214502 | 17 | 44 | 3.2 | 14.5 | 0.00 | 0.00 | 0.00 | 58 | 1020.5 |
| 20260501214007 | 17 | 64 | 6.4 | 14.5 | 0.00 | 0.00 | 0.00 | 58 | 1020.5 |
| 20260501213506 | 17 | 17 | 4.8 | 14.5 | 0.00 | 0.00 | 0.00 | 57 | 1020.5 |